This demonstration page uses our WeatherBlox Daily Observations layout. Learn more.

Left ArrowRight Arrow

Hourly Observations for February 3, 2016

Temp ( °F °C ) Dew Point ( °F °C ) Humidity (%) Winds ( mph kmh ) Pressure ( in mb ) Visibility ( mi km ) Precip ( " mm )
12:53 am 00:53 Cloudy 23 -5 20 -6.7 88 88 W 7 11 30.16 1022 9 14 0.00 0.00
1:53 am 01:53 Cloudy 22 -5.6 20 -6.7 92 92 W 9 15 30.17 1022 10 16 0.00 0.00
2:53 am 02:53 Cloudy 21 -6.1 19 -7.2 92 92 WSW 10 17 30.16 1022 10 16 0.00 0.00
3:53 am 03:53 Cloudy 22 -5.6 19 -7.2 89 89 WSW 10 17 30.16 1022 9 14 0.00 0.00
4:53 am 04:53 Cloudy 21 -6.1 19 -7.2 92 92 WSW 13 20 30.16 1022 7 11 0.00 0.00
5:50 am 05:50 Partly Cloudy 19 -7 18 -8 93 93 WSW 9 15 30.21 1023 7 11 0.00 0.00
5:53 am 05:53 Mostly Clear 20 -6.7 18 -7.8 92 92 WSW 10 17 30.17 1022 7 11 0.00 0.00
6:53 am 06:53 Clear 19 -7.2 16 -8.9 88 88 WSW 9 15 30.18 1022 10 16 0.00 0.00
7:53 am 07:53 Sunny 20 -6.7 14 -10 78 78 WSW 12 19 30.18 1022 10 16 0.00 0.00
8:53 am 08:53 Sunny 21 -6.1 15 -9.4 78 78 SW 16 26 30.19 1022 10 16 0.00 0.00
9:53 am 09:53 Sunny 25 -3.9 15 -9.4 66 66 WSW 17 28 30.18 1022 10 16 0.00 0.00
10:53 am 10:53 undefined 28 -2.2 15 -9.4 58 58 WSW 16 26 30.17 1022 10 16 0.00 0.00
11:53 am 11:53 undefined N/A N/A N/A undefined N/A N/A N/A 0.00 0.00
12:53 pm 12:53 undefined N/A N/A N/A undefined N/A N/A N/A 0.00 0.00
2:53 pm 14:53 Mostly Sunny 34 1.1 15 -9.4 46 46 NW 12 19 30.14 1021 10 16 0.00 0.00
3:53 pm 15:53 Mostly Sunny 33 0.6 14 -10 45 45 WNW 9 15 30.14 1021 10 16 0.00 0.00
4:53 pm 16:53 Sunny 30 -1.1 14 -10 51 51 W 7 11 30.14 1021 10 16 0.00 0.00
5:53 pm 17:53 Clear 25 -3.9 15 -9.4 66 66 SW 8 13 30.15 1021 10 16 0.00 0.00
6:53 pm 18:53 Clear 22 -5.6 15 -9.4 75 75 WSW 7 11 30.15 1021 10 16 0.00 0.00
7:53 pm 19:53 Clear 21 -6.1 14 -10 74 74 SW 3 6 30.14 1021 10 16 0.00 0.00
8:53 pm 20:53 Clear 19 -7.2 14 -10 81 81 Calm 30.14 1021 10 16 0.00 0.00
9:53 pm 21:53 Clear 19 -7.2 15 -9.4 84 84 SW 9 15 30.12 1020 10 16 0.00 0.00
10:53 pm 22:53 Clear 19 -7.2 15 -9.4 84 84 W 6 9 30.11 1020 10 16 0.00 0.00
11:53 pm 23:53 Clear 19 -7.2 14 -10 81 81 WNW 6 9 30.18 1022 10 16 0.00 0.00

Powered by AerisWeather